ARIANE 5 DEB (SYLDA), 32255

Orbit data source: Space-Track

ARIANE 5 DEB (SYLDA), 32255 is space debris in HEO originally from a launch on Fri, 05 Oct 2007 UTC launched from the French Guiana (FRGUI). Debris objects in space refer to the collection of defunct objects orbiting the Earth. Examples of debris include non-operational satellites, rocket bodies, and fragments generated from explosions, collisions, or faulty payload assembly.

Loading next visibility...
Identifier
32255, 2007-044D
Orbit
HEO
Country
Flag of FRFR
Related business
Manufacturer
EADS/Bremen
Mission
Spacecraft
Bus & Motor
SYLDA 5, Unknown motor
Mass
440 kg wet, 440 kg dry
Launch date (UTC)
2007-10-05 (19 years ago)
Launch vehicle
Unknown
Launch site
French Guiana (FRGUI)
Object type
Payload
Rocket body
Debris
Shape & HBR
Cyl, 2.6 m
Radar Cross Section
26.330 m², Large (>1 m²)

Expand to show TLE details & history
Last TLE update: 2 days ago

TLE from 2 days ago
0 ARIANE 5 DEB (SYLDA)
1 32255U 07044D   26171.35478845 -.00000111  00000-0  90919-6 0  9991
2 32255   4.4463  53.9759 7155376 333.9961 181.5146  2.26840285154571
Epoch: 2026-06-20T08:30Z
TLE epoch observation values (Epoch: 2026-06-20T08:30:53.722Z)
Latitude
1.92027°
Longitude
172.13547°
Altitude
35,576.737 km
Speed
1.646 km/s
True Right ascension
13h 53m 43s
True Declination
1° 55' 06"
Sunlit
Object was in daylight at epoch
Visualization orbit readout
Latitude
Unknown
Longitude
Unknown
Altitude
Unknown
Speed
Unknown
Apparent Right ascension
Unknown
Apparent Declination
Unknown
Sunlit
N/A
Visualization observer readout
Local Sidereal Time
23:18:32
Azimuth
Unknown
Elevation
Unknown
Doppler factor
Unknown
Orbital elements
Apogee altitude
35,605.666 km
Perigee altitude
583.42 km
Semi-major axis
24,472.68 km
Eccentricity
0.71554
Inclination
4.4463°
RAAN
53.9759°
Arg. of periapsis
333.9961°
True anomaly
180.35952°
Mean anomaly
181.5146°
Eccentric anomaly
180.88289°
Mean motion
0.56692 °/min
Orbital period
635.01 mins
BSTAR
9.0919e-7
Loading maneuver chart data...
Computing Atmospheric mass density...
Loading historical data...
Loading historical data...
Loading historical data...
Loading historical data...
Loading historical data...
Loading historical data...
Loading historical data...
Other satellites on launch #44 in the year 2007 (2007-10-05 UTC)

Documentation

Showing up to 5 results
|